Location: Akgöl Batakl???
(38.9482°N, 31.8837°E)
Time: 21:44:22
(UTC+00:00)

MOS 1-B - Pass Details

Date: 08 May 2026
Orbit: 904 x 911 km, 99.2° (Epoch: 10 June)

Event Time Altitude Azimuth Distance (km) Brightness Sun altitude
Exits shadow 18:56:39 33° 170° (S) 1,468 5.0 -20.9°
Maximum altitude 18:59:23 84° 256° (WSW) 919 4.3 -21.2°
Drops below altitude 10° 19:05:12 10° 345° (NNW) 2,604 7.6 -22.0°
Sets 19:07:38 0° 346° (NNW) 3,550 8.5 -22.3°
